Theta_e
328 329 329 327 328 328 327 326 328 328 329 329 330 329 328 327 325 324 323 321 320 320 319 318 316 315 315 313 312 312 313 315 314 313 313 315 317 318 320 323 327 330 331 331 331 331 332 332 333 332 333 333 333 333 332 332 332 332 331 331 331 332 332 332 332 332 333 333 334 334 333 332 331 331 331 331 331 330 331 331 332 332 332 330 330
327 328 329 328 328 328 326 326 327 327 329 329 329 329 329 328 326 323 321 320 319 320 317 317 315 315 313 313 313 314 313 313 312 312 314 315 316 317 318 320 323 326 328 331 332 333 333 332 333 333 333 334 333 333 333 333 332 332 332 332 332 332 332 333 333 333 333 333 333 333 333 333 332 332 331 332 332 332 332 331 332 333 333 333 333
324 326 327 327 326 326 326 325 326 327 328 328 327 326 326 325 326 323 320 319 318 318 316 316 316 314 313 313 313 312 313 313 312 313 315 316 316 317 319 319 321 324 325 326 329 331 332 332 332 333 334 334 334 333 333 333 333 333 333 333 332 332 333 333 333 333 333 333 333 333 333 333 332 332 332 331 331 331 331 331 331 331 331 331 332
321 323 325 324 324 325 325 325 325 327 328 327 325 324 323 322 321 321 320 319 317 317 317 317 317 317 314 315 316 315 314 313 313 315 316 319 319 321 320 321 318 316 316 319 323 327 328 328 330 332 332 332 332 333 333 333 333 332 332 332 332 332 331 330 329 330 331 332 332 332 332 331 332 332 333 332 332 332 332 332 331 330 330 331 332
317 318 320 320 319 319 320 320 321 322 323 325 326 326 325 324 322 321 320 319 319 319 320 320 319 319 318 317 317 318 316 316 317 318 319 319 318 317 318 318 317 315 312 313 316 320 323 325 328 328 326 328 330 331 332 332 331 331 331 331 331 331 331 329 328 327 328 329 330 331 331 331 331 331 332 332 332 332 331 331 331 331 332 332 332
314 314 315 316 315 315 315 315 316 318 318 319 321 323 322 319 319 321 319 320 319 318 318 317 317 318 318 318 318 318 318 318 316 313 310 310 309 308 310 311 310 307 306 309 311 314 317 321 323 324 324 325 326 325 324 326 329 330 330 330 329 329 329 328 327 327 327 328 329 329 331 331 330 330 331 331 331 332 332 332 332 332 332 332 333
311 311 310 311 311 311 311 313 314 315 316 316 318 318 313 310 310 316 316 312 312 309 310 310 311 313 314 317 319 320 319 314 309 306 304 304 304 303 302 302 302 303 303 302 305 308 312 314 316 319 321 321 323 321 321 322 325 327 327 327 327 327 328 327 326 325 326 327 328 329 329 329 328 327 327 329 331 331 331 331 331 331 331 332 332
309 309 308 308 309 308 309 311 312 312 311 311 312 313 310 308 306 308 311 308 307 306 307 308 309 310 311 314 317 319 311 305 302 302 301 301 299 298 297 298 298 299 300 298 298 301 307 310 310 313 315 317 318 318 318 319 319 320 322 324 325 326 326 325 325 324 325 325 326 325 326 327 327 326 326 327 328 330 330 330 330 331 330 330 330
306 306 306 306 306 307 308 309 310 310 309 308 306 307 309 306 303 303 305 304 304 304 305 305 307 308 310 314 315 307 301 298 298 298 300 299 298 297 296 296 297 300 297 297 297 297 301 306 306 308 310 311 312 314 315 316 317 317 318 320 322 322 322 323 324 324 323 322 322 322 323 323 325 325 325 325 325 327 329 329 330 329 330 330 330
303 304 304 304 304 304 305 306 308 308 308 307 305 304 304 305 302 300 301 301 300 300 301 303 306 307 311 312 311 305 299 297 297 297 296 296 296 297 297 296 296 297 296 296 296 296 297 299 303 303 304 307 308 309 312 313 314 315 315 318 319 320 320 321 322 322 321 320 320 321 321 321 322 323 323 323 324 325 328 329 329 329 329 329 329
300 301 301 301 301 301 301 302 304 304 304 304 304 304 302 302 302 301 300 299 298 298 299 302 305 308 305 304 303 300 299 299 297 296 295 295 296 297 298 296 296 296 296 296 296 296 296 296 296 297 296 303 305 305 308 309 309 312 313 315 317 318 319 320 320 319 318 318 318 319 319 319 319 320 320 321 323 324 326 328 328 328 328 328 329
298 298 299 299 298 299 299 299 300 300 299 299 299 301 300 297 296 297 297 296 296 297 299 301 305 301 299 300 300 299 298 298 297 296 295 294 294 295 295 296 295 295 295 294 294 295 295 295 295 295 295 297 302 302 303 304 304 308 310 312 314 316 317 319 319 318 317 316 317 317 317 317 317 318 320 321 322 323 324 325 326 326 326 327 327
297 297 296 297 295 295 295 295 295 295 295 294 295 296 298 297 295 294 294 293 292 294 295 298 301 298 298 297 297 298 298 296 295 295 294 293 292 292 293 293 294 294 294 293 293 293 293 294 294 294 295 292 294 299 299 301 301 303 306 310 312 314 315 317 318 317 316 315 315 315 316 317 317 318 319 320 321 320 321 322 323 324 324 325 326
296 295 295 294 293 293 293 293 294 294 294 294 295 295 294 295 296 293 293 292 290 292 293 300 299 297 295 296 295 296 296 296 295 293 293 292 291 290 291 291 292 292 293 291 290 290 291 293 293 293 294 292 292 293 293 294 295 300 302 306 309 312 314 315 316 316 316 314 314 315 315 316 316 317 318 318 318 318 318 319 320 321 322 323 324
293 294 293 293 293 292 292 292 293 294 292 292 293 292 293 293 293 293 291 292 291 291 291 294 296 298 301 302 302 301 298 293 294 294 292 291 290 289 290 290 291 290 291 289 289 289 290 291 292 292 293 292 291 291 290 293 294 298 300 303 305 309 311 313 315 315 315 314 313 314 314 315 315 316 316 316 316 317 317 317 318 319 320 321 323
294 294 293 292 292 292 292 293 293 293 293 291 290 290 290 291 292 292 292 288 288 288 289 291 291 296 299 298 299 299 299 292 288 294 293 290 289 288 288 288 289 289 290 287 288 288 289 290 291 291 291 291 290 289 289 290 293 296 298 300 302 306 308 311 314 314 314 312 312 313 313 314 314 314 315 315 315 315 316 317 317 318 319 320 322
293 292 293 292 292 292 291 291 290 290 290 290 289 290 290 290 290 290 290 289 287 287 288 289 289 290 295 294 291 290 289 288 288 291 293 290 288 288 288 287 288 288 288 287 287 287 288 289 289 290 289 289 289 287 287 288 288 292 291 298 303 305 307 309 311 313 313 312 311 311 312 312 312 313 314 314 314 314 315 316 316 316 316 317 319
291 291 291 291 290 290 290 290 290 290 290 289 289 289 289 289 289 290 289 289 289 287 286 288 288 288 288 286 287 287 285 287 288 287 292 290 288 288 286 286 287 287 288 286 286 286 288 288 288 289 288 289 288 287 286 287 290 287 289 292 302 304 305 307 310 312 312 311 310 310 310 311 311 312 312 312 313 313 314 314 313 313 314 315 315
289 289 290 290 289 289 289 289 289 289 290 288 288 288 288 289 289 289 288 289 288 285 285 286 287 286 287 287 286 286 285 284 282 285 286 289 287 286 285 286 286 287 287 286 286 286 287 287 287 287 287 288 287 286 286 286 289 290 295 298 300 302 304 305 307 310 311 310 310 310 309 309 310 311 311 311 311 312 313 313 312 312 313 314 314
287 287 288 289 288 288 288 288 288 289 289 287 287 288 288 288 288 288 288 287 287 285 285 286 284 284 286 285 285 285 285 284 284 283 283 279 281 284 284 284 285 285 286 285 285 285 285 285 286 285 286 287 286 285 285 285 285 286 288 296 298 300 301 303 306 308 310 309 309 309 308 308 309 309 310 310 310 310 311 311 311 311 312 312 313
286 286 287 287 288 287 286 286 286 286 288 286 286 286 286 286 286 286 286 286 286 286 285 284 284 283 283 283 284 283 283 283 283 283 281 278 279 279 279 282 283 283 284 284 284 285 285 285 286 285 286 286 285 284 284 284 285 285 289 294 296 298 299 302 304 306 308 308 308 308 307 308 308 309 308 308 308 309 309 310 310 310 310 311 311
285 285 285 286 286 287 286 286 286 286 287 285 285 285 284 284 285 285 285 284 285 285 284 284 284 283 283 283 281 281 281 281 281 280 280 280 277 277 279 278 277 280 283 283 283 284 284 284 284 284 285 285 284 284 284 284 284 285 288 291 293 295 297 300 302 304 306 307 307 306 306 307 307 308 307 307 308 308 308 308 309 309 309 309 310
284 284 285 285 286 287 286 286 286 287 286 284 284 284 284 284 284 284 284 284 283 283 284 283 283 283 282 282 281 280 279 278 278 279 278 277 277 277 278 279 278 278 281 282 283 283 283 284 283 283 284 283 283 284 283 283 286 287 288 289 291 293 295 298 301 303 304 305 306 305 305 306 306 306 306 306 307 307 307 307 308 308 308 308 309
283 283 283 284 285 284 285 285 285 284 284 284 284 284 284 284 284 284 283 284 284 284 283 282 282 282 282 282 281 282 281 280 281 281 279 278 279 276 277 278 278 279 281 281 282 282 282 282 282 282 283 282 283 284 283 283 284 287 288 289 289 291 294 297 299 301 302 303 303 303 303 305 305 306 305 306 306 306 306 306 307 307 307 307 307
282 282 282 283 284 283 283 284 284 285 285 284 284 284 284 284 284 283 283 283 283 283 282 282 282 282 281 282 282 282 281 282 282 281 281 281 280 276 277 279 276 277 279 280 279 282 282 282 282 282 283 282 283 282 282 283 283 286 288 287 288 289 291 294 296 299 301 302 302 302 303 304 305 305 305 304 304 304 305 305 305 305 305 305 305
281 281 282 283 283 283 283 283 283 284 285 284 284 284 284 284 283 283 282 283 283 282 282 282 282 282 282 281 281 282 281 283 281 282 280 279 277 277 277 277 277 277 279 278 279 279 280 282 282 282 281 281 282 282 282 282 282 286 288 286 285 288 290 292 294 297 298 299 300 301 301 303 303 304 303 303 303 303 303 303 303 303 304 304 304
282 282 283 282 282 283 283 282 283 282 283 283 284 283 283 283 284 284 284 283 282 283 282 282 283 282 282 282 283 282 282 283 282 282 282 281 280 279 277 275 275 276 276 278 278 278 278 280 281 281 281 282 281 281 282 282 284 286 287 283 282 287 288 290 292 294 296 297 299 300 300 301 303 303 302 302 302 302 302 302 302 302 303 303 304
282 282 283 282 282 282 282 281 282 282 282 282 282 282 282 282 281 282 283 285 282 281 281 281 281 281 281 282 281 281 283 283 283 283 282 283 282 281 279 277 275 273 275 274 276 276 279 278 279 281 280 280 281 281 284 283 281 286 286 282 282 282 286 288 290 292 294 295 296 298 299 300 301 302 302 302 301 301 301 301 301 302 302 302 303
283 283 281 282 281 281 281 281 282 282 281 282 282 281 281 281 281 281 281 282 283 281 281 281 281 281 281 281 281 282 281 282 282 283 283 282 283 281 281 278 278 274 273 273 274 275 277 278 277 279 280 280 280 281 281 281 283 284 282 282 281 281 285 288 289 290 291 292 293 295 297 298 299 301 302 302 302 302 301 301 302 302 302 303 303
283 285 281 282 283 285 281 282 281 282 282 281 281 281 281 281 281 281 281 281 281 282 283 281 282 282 283 281 281 281 282 281 282 282 282 281 281 281 280 280 280 276 275 274 274 277 276 278 279 278 280 280 281 281 281 280 284 284 282 281 281 281 285 286 287 288 289 290 291 292 294 296 297 299 300 301 301 301 301 301 301 302 302 302 301
283 282 280 280 281 281 280 280 281 282 281 281 281 281 281 280 281 281 282 280 280 280 280 282 282 282 281 280 280 280 281 281 281 281 281 281 280 280 280 281 280 279 277 276 273 276 278 277 278 280 279 279 280 280 281 281 283 283 281 281 281 284 285 284 285 286 288 289 289 290 292 294 296 297 298 299 300 300 301 301 300 300 300 299 297
281 281 280 281 281 280 280 281 281 280 281 281 281 281 280 280 281 281 280 280 280 280 280 280 282 281 280 279 279 280 280 280 280 280 280 280 281 280 280 280 278 278 278 277 275 274 278 278 278 279 279 279 280 279 279 280 282 284 281 281 281 284 281 281 284 285 286 286 287 288 289 290 292 294 295 296 297 298 299 298 298 297 296 294 293
281 281 280 280 280 281 280 282 280 280 280 280 281 280 280 280 280 280 280 280 280 279 281 280 280 281 280 280 279 280 280 279 279 280 280 280 280 280 280 279 278 278 277 276 275 275 277 278 278 278 279 279 278 279 278 279 279 280 282 280 280 280 280 280 280 283 284 286 287 288 288 289 289 291 292 292 293 295 294 294 293 293 292 291 291
281 281 281 280 280 280 279 280 281 280 280 280 280 280 281 280 279 282 281 280 279 279 280 279 279 280 280 279 279 279 279 279 279 279 279 279 279 278 278 279 277 278 278 277 276 276 274 277 277 278 278 279 277 279 278 278 278 279 279 279 280 280 280 280 280 280 284 285 285 287 287 287 287 288 288 288 290 290 290 290 289 290 290 290 290
281 281 281 281 281 281 280 280 280 279 280 280 280 281 281 280 280 280 282 280 280 279 279 279 279 279 279 279 279 279 281 279 279 279 279 279 279 278 278 278 278 278 278 278 276 275 275 275 276 276 277 278 277 277 278 279 279 279 278 278 279 280 280 280 280 280 283 284 285 286 286 286 286 287 287 287 287 288 288 289 289 289 289 289 289
281 282 281 281 281 281 280 280 279 280 280 280 281 281 281 281 280 281 281 281 280 280 280 280 279 279 279 278 279 279 279 279 279 279 279 278 278 278 278 278 278 277 278 277 277 276 275 274 275 276 277 276 277 278 279 279 278 278 278 278 279 279 279 279 279 279 281 283 284 284 285 285 285 286 286 287 287 287 287 287 287 287 288 288 288
281 281 282 281 281 281 282 281 281 280 281 281 281 281 281 281 281 281 281 280 280 280 281 280 282 280 280 280 279 279 278 278 278 278 279 278 278 278 278 278 277 278 278 277 276 276 275 274 275 276 277 277 277 277 278 277 277 277 278 277 278 278 278 278 279 279 282 282 283 283 283 284 284 285 285 286 286 286 286 286 286 286 286 287 287
281 281 281 281 282 281 281 281 281 281 281 281 280 281 281 281 281 281 281 281 281 281 281 281 280 280 280 280 280 279 279 279 279 279 278 278 278 278 277 277 277 277 276 276 276 275 275 275 275 275 276 275 275 276 277 277 276 275 276 276 277 277 277 276 277 278 279 279 278 279 281 282 283 284 285 285 285 286 285 285 285 285 285 285 286
281 281 281 281 282 282 282 281 281 281 281 281 281 280 280 280 280 280 280 280 281 281 281 281 280 280 280 280 280 279 279 279 279 278 278 278 278 277 278 277 277 277 276 276 276 275 275 275 275 275 275 276 275 275 276 276 276 275 274 274 274 276 276 275 275 277 278 278 280 282 281 281 282 282 283 285 284 284 284 284 284 284 284 284 285
281 281 281 281 282 281 282 281 282 281 281 281 281 281 281 280 280 280 280 281 280 280 280 280 280 280 280 280 280 280 279 279 279 278 278 278 278 277 278 278 277 277 276 276 276 275 275 275 274 274 275 275 275 275 276 275 274 274 275 274 273 273 274 275 275 275 277 277 277 278 280 281 281 281 283 282 282 282 283 282 282 282 282 283 285
282 282 282 281 281 281 281 281 281 281 281 282 282 282 281 280 280 280 281 281 280 280 280 280 280 280 280 280 280 279 282 285 284 284 284 283 281 279 278 277 277 277 276 276 276 275 275 275 274 275 274 274 274 274 274 273 273 273 274 274 273 274 274 274 275 277 277 276 277 277 277 278 278 278 278 277 278 280 280 281 281 281 281 283 284
281 281 281 281 281 281 281 281 281 281 282 282 284 286 286 283 281 281 281 280 280 280 280 280 280 280 280 279 281 283 284 284 284 285 285 286 285 283 281 279 278 277 277 276 276 276 275 274 274 274 273 273 274 274 273 274 274 274 273 273 273 274 274 274 276 277 278 277 276 276 278 279 278 277 276 276 277 279 278 278 277 278 281 283 283
281 281 281 281 281 281 281 281 281 281 282 283 286 288 289 289 285 281 280 280 280 280 279 279 279 279 279 278 278 281 283 283 283 284 284 284 284 283 283 283 282 279 277 276 276 275 275 275 275 274 273 273 274 274 274 274 274 273 273 274 274 274 274 273 272 275 278 278 276 276 276 277 276 274 275 275 276 276 276 276 279 281 281 282 283
281 281 280 281 281 281 282 281 281 282 282 285 287 288 289 290 289 285 281 280 280 279 279 279 279 279 279 278 278 279 279 279 279 279 280 282 282 282 282 282 282 282 282 279 277 275 275 274 274 274 274 273 273 274 273 274 273 274 275 275 275 274 274 273 273 273 276 279 276 274 274 276 275 274 273 274 275 275 276 278 280 280 281 282 283
281 280 281 281 281 281 281 281 281 282 282 285 288 289 289 289 289 288 283 281 280 280 280 279 279 279 279 278 278 278 279 281 282 280 278 278 280 281 281 281 281 281 281 281 281 279 277 276 275 274 274 274 273 273 274 274 276 274 275 275 275 275 275 274 274 275 276 278 275 273 271 273 273 271 272 273 274 274 275 277 279 280 281 281 281
281 281 281 281 281 281 281 281 281 282 282 284 287 288 288 289 289 289 284 283 282 281 281 280 280 279 278 278 278 278 279 278 278 277 277 277 277 276 276 275 275 277 279 280 280 281 280 277 275 274 275 275 274 275 276 277 276 275 275 275 275 275 275 274 276 276 277 278 273 272 269 270 271 271 270 272 274 273 274 276 279 280 280 280 281
281 281 281 281 281 281 281 281 281 281 282 286 288 288 288 289 289 289 284 284 282 281 281 280 280 279 279 279 279 278 278 277 278 279 278 278 277 277 276 275 275 275 275 276 275 275 276 276 275 275 276 276 276 276 277 278 278 278 278 277 277 276 276 276 275 276 275 275 273 271 267 269 272 270 270 272 272 272 273 276 277 279 279 279 280
280 280 280 280 281 281 281 281 280 281 282 286 287 288 288 289 289 286 283 282 281 280 280 279 279 279 279 279 278 278 277 277 278 280 280 279 277 276 276 275 275 275 275 278 280 280 279 278 278 277 277 278 280 279 279 279 279 279 279 278 277 276 274 272 270 271 270 272 273 270 268 269 271 270 269 272 272 271 272 272 275 277 278 278 278
280 280 280 281 281 281 281 280 280 281 281 284 286 287 288 289 288 284 281 280 280 279 279 279 279 279 279 278 278 277 277 277 278 280 280 280 277 276 275 275 275 275 275 276 279 280 281 281 281 281 282 282 282 282 282 282 280 280 277 274 272 273 270 268 268 269 268 271 271 272 270 268 270 270 269 271 271 270 270 270 271 274 275 276 277
280 280 280 280 280 280 280 280 280 280 281 282 285 287 287 288 287 281 279 279 278 277 277 277 278 278 278 279 279 278 277 277 279 279 280 279 277 275 275 274 274 273 274 275 276 276 279 280 280 281 281 281 281 281 281 281 280 279 274 270 271 271 269 269 267 268 269 270 270 272 269 267 269 270 269 269 270 268 269 269 269 270 273 273 274
280 280 280 279 280 279 280 280 280 280 280 281 284 286 287 288 286 279 278 277 276 276 276 276 277 277 277 278 279 278 278 278 279 280 280 279 276 275 274 274 273 273 274 274 275 275 275 276 276 277 278 278 277 276 276 278 278 277 274 272 272 270 268 268 268 267 266 267 271 272 267 267 268 268 269 264 262 266 268 268 268 268 268 268 269
Wind_Speed
3 3 3 3 2 4 3 3 2 4 3 1 2 2 1 1 2 3 3 4 4 5 5 4 4 3 3 3 3 3 4 4 3 3 3 4 4 5 7 8 8 9 11 11 10 8 8 9 9 8 8 8 9 9 10 9 9 10 10 10 10 11 11 11 10 11 11 11 12 12 13 14 15 16 17 17 18 18 18 18 18 19 18 18 18
4 3 3 2 2 2 2 2 4 2 2 4 3 2 3 3 3 3 4 4 5 5 2 3 2 1 2 3 3 3 2 3 3 3 3 4 4 4 7 8 7 8 10 11 11 12 11 10 10 12 11 10 10 11 11 10 10 9 10 11 12 13 13 13 14 14 14 14 14 14 14 14 15 16 15 16 17 17 18 18 17 16 16 17 18
4 4 4 4 3 3 3 1 2 0 0 0 1 2 2 4 5 5 5 4 5 3 3 3 1 2 1 3 2 1 3 2 2 2 3 3 3 3 4 7 9 11 11 16 16 15 16 16 17 15 15 15 14 13 12 12 12 13 13 14 14 14 13 13 14 14 14 15 14 15 15 15 15 16 16 15 15 17 17 17 18 18 18 18 18
6 6 5 5 5 6 6 6 6 4 3 1 2 2 2 2 2 4 5 4 3 3 2 3 2 0 2 3 4 4 4 2 2 4 4 3 5 6 6 9 18 17 17 19 18 17 18 18 17 15 15 16 17 16 16 14 14 14 14 13 14 15 18 19 19 18 18 17 16 15 15 15 16 16 16 16 16 15 15 16 17 18 18 18 18
6 7 7 6 5 5 5 5 5 4 5 5 4 3 3 5 4 1 1 1 2 2 3 4 5 5 5 5 4 4 3 4 6 6 7 7 7 6 7 8 8 11 17 20 17 18 18 18 17 18 18 18 17 17 20 17 15 16 17 18 19 19 18 20 20 20 20 19 19 19 18 18 17 17 17 17 17 17 17 17 17 17 17 17 18
7 8 7 6 5 5 6 5 4 4 5 6 5 5 5 6 5 4 4 4 5 5 6 6 5 4 5 4 5 5 5 7 7 7 7 7 7 7 7 8 7 7 7 14 17 18 19 19 19 19 19 20 20 20 20 19 21 21 21 21 20 21 22 22 22 19 19 19 19 20 20 19 19 19 18 17 17 17 17 18 18 19 18 17 17
8 7 8 7 6 6 7 5 4 4 5 6 5 7 7 6 5 5 5 5 5 5 5 4 5 5 4 4 5 6 6 7 6 7 7 7 8 8 8 8 8 7 7 7 10 18 19 19 20 20 20 20 20 21 22 21 21 22 22 22 24 24 24 22 21 20 19 19 19 19 20 20 20 19 21 21 18 18 17 18 18 18 19 19 19
7 7 8 7 6 7 6 6 6 4 5 6 7 7 6 6 6 5 5 5 5 5 4 4 4 5 5 5 5 7 7 7 8 7 7 7 8 9 8 8 8 8 8 8 7 11 18 18 20 22 21 21 21 22 21 22 22 22 22 22 21 21 21 22 21 19 19 19 20 20 20 20 20 20 20 22 23 20 18 17 17 17 16 17 17
7 9 8 7 7 7 7 6 6 6 6 5 6 5 5 5 6 7 5 4 5 4 3 3 4 4 4 5 9 10 8 8 8 7 7 9 9 9 8 9 8 9 8 8 8 7 11 17 19 22 22 21 21 21 22 22 23 24 24 23 24 24 23 23 22 20 21 22 21 20 20 20 20 21 20 21 22 23 21 19 18 17 17 17 16
10 8 8 7 7 6 6 7 5 7 7 8 7 6 6 5 6 7 6 5 5 4 3 4 2 3 4 8 10 9 8 8 7 8 8 9 9 9 9 8 9 9 9 9 8 8 7 11 16 17 20 19 20 21 22 22 24 24 25 25 24 24 24 24 23 22 22 22 22 21 21 21 21 22 22 22 21 22 22 21 20 20 18 17 16
10 9 8 7 7 7 7 8 6 6 7 7 7 6 6 6 6 5 6 7 5 4 2 2 2 4 7 9 10 9 8 7 7 8 8 8 9 7 6 8 8 9 8 8 8 8 8 8 8 8 10 18 18 21 22 23 23 24 25 25 25 24 24 24 24 23 22 22 22 22 23 23 23 23 23 21 21 22 22 22 22 21 21 20 18
8 8 8 7 7 7 7 6 6 6 7 8 6 6 6 6 7 5 5 4 6 5 4 3 6 9 9 9 9 9 9 8 9 8 8 10 8 7 8 7 8 8 9 8 7 8 8 8 8 7 7 11 18 19 20 22 23 24 25 25 25 24 24 23 22 23 23 23 23 23 23 23 23 23 23 22 22 22 22 22 22 23 23 22 21
9 8 8 7 7 6 7 7 6 7 7 7 6 7 6 5 5 6 6 6 8 8 6 3 5 8 7 8 9 8 8 9 10 9 10 8 7 7 7 8 8 8 7 7 8 9 8 8 8 8 8 8 9 16 19 21 23 24 26 25 25 24 24 23 23 23 23 23 23 24 24 23 24 23 23 22 22 24 24 24 24 23 24 24 23
9 9 9 8 7 7 7 7 6 6 7 7 8 8 8 7 3 6 7 8 7 8 7 2 2 4 8 4 4 4 7 9 9 9 8 8 8 8 8 9 10 8 7 8 8 9 9 8 8 9 8 8 8 8 9 11 15 24 24 25 25 25 24 23 23 23 23 23 24 24 23 23 24 23 23 23 24 25 24 24 24 24 24 24 24
10 9 7 8 7 7 7 6 7 5 7 9 9 9 8 8 7 4 4 7 7 8 9 7 2 2 1 5 3 3 2 4 5 8 8 8 8 9 8 8 9 8 7 7 8 9 9 9 9 9 9 9 8 9 9 10 17 23 23 25 25 25 24 24 24 23 23 23 23 24 24 23 24 24 24 25 25 25 25 24 24 24 24 23 23
10 9 8 8 8 7 6 7 8 7 7 8 9 9 8 8 7 8 4 7 8 9 9 8 6 1 4 1 2 1 3 2 3 2 5 8 8 9 8 7 7 8 7 10 9 9 8 8 9 9 9 8 8 8 8 9 18 20 23 24 26 25 25 24 23 24 24 23 24 24 23 23 23 23 24 24 24 24 24 23 23 23 23 24 23
9 9 8 9 9 8 8 7 7 7 7 8 8 9 9 8 8 8 9 6 7 7 10 11 13 10 3 3 3 2 1 2 2 1 2 5 7 7 9 9 8 9 8 9 8 8 8 9 9 8 8 8 8 8 8 9 10 9 13 21 26 25 25 24 24 24 24 24 24 23 23 23 24 23 24 24 23 24 24 23 24 26 27 27 26
9 9 9 8 8 8 8 8 8 8 7 7 8 8 9 10 9 7 9 9 6 8 9 10 12 13 14 10 5 2 1 3 2 1 2 4 6 6 10 11 8 9 8 10 10 8 8 8 8 9 8 8 8 8 8 10 11 10 11 16 27 25 25 25 24 24 24 24 24 24 23 24 24 24 24 25 24 23 23 24 25 25 25 25 26
9 9 9 8 8 8 8 8 9 8 7 7 9 9 8 8 6 8 8 7 7 10 8 5 6 11 10 10 11 9 7 4 3 2 3 1 4 7 8 11 8 9 9 11 10 9 8 7 8 8 7 7 8 8 8 10 14 15 21 25 25 26 26 25 25 24 24 25 24 24 24 24 24 24 25 25 25 24 23 23 24 24 25 25 25
8 9 9 8 8 8 9 9 9 8 8 9 9 8 7 8 9 9 9 9 9 9 10 8 7 6 7 8 9 10 10 9 7 4 2 4 6 4 5 9 7 7 8 10 10 8 7 7 7 7 6 7 7 8 9 10 9 10 12 25 24 25 26 26 25 25 25 25 25 24 24 24 24 24 25 24 24 24 24 23 24 24 25 25 24
8 8 8 8 8 8 8 9 9 8 8 8 8 9 9 8 9 9 10 9 9 6 7 7 7 5 5 6 6 7 7 8 8 6 5 4 3 7 11 5 3 4 6 8 8 6 6 5 7 7 5 6 7 8 8 9 8 9 14 23 24 25 25 25 25 25 25 25 25 25 24 24 25 25 25 25 24 24 24 23 24 24 25 25 25
8 8 8 8 8 8 8 8 8 8 8 8 8 9 9 10 9 9 8 10 8 9 9 7 7 7 8 5 7 4 4 5 7 6 4 5 3 5 8 11 11 6 5 8 9 6 6 5 7 7 5 6 6 7 9 8 8 8 13 22 22 24 25 25 25 24 24 24 24 24 25 25 25 25 25 25 25 24 24 24 25 25 25 25 25
6 7 7 7 7 7 7 7 7 7 7 8 8 8 7 8 8 9 10 10 8 9 9 8 7 8 8 8 7 8 6 7 5 5 4 2 4 3 5 5 7 9 7 8 6 6 4 4 7 7 4 6 6 8 8 8 7 11 19 19 22 23 24 24 24 24 24 24 24 24 24 24 25 25 25 25 25 24 25 25 25 25 25 25 25
6 6 7 6 6 6 6 6 7 7 8 6 7 7 7 7 7 8 8 8 7 8 7 8 8 7 8 6 6 6 6 5 4 4 4 3 2 3 5 5 3 2 5 6 5 6 5 5 6 5 4 5 7 7 7 7 8 15 13 17 21 23 23 24 24 24 24 24 24 25 25 25 25 25 25 24 24 25 25 26 26 26 25 26 25
5 6 5 5 5 6 6 6 6 6 6 6 6 6 6 6 7 7 7 7 6 6 7 7 6 7 6 5 5 5 5 3 3 3 2 2 2 4 2 2 4 5 2 3 3 6 2 6 5 6 4 6 7 6 6 6 7 12 15 10 19 20 23 23 24 24 24 24 24 25 25 25 25 25 25 26 26 26 26 26 26 26 26 26 25
4 4 3 4 4 4 4 5 4 4 5 5 5 5 5 6 5 7 6 5 5 6 6 5 6 5 4 5 4 4 4 3 3 3 3 3 4 4 5 3 3 4 2 2 3 4 3 3 4 6 4 6 6 7 7 8 8 11 17 10 12 19 22 23 24 24 24 24 24 24 24 24 24 24 25 26 26 27 26 26 26 26 26 26 26
5 3 3 4 4 4 4 5 4 4 4 4 5 5 5 5 5 5 5 4 5 5 5 5 6 5 4 4 4 3 2 2 3 3 2 3 2 3 4 9 4 1 5 2 1 2 6 2 3 3 4 5 6 6 7 8 9 13 15 9 9 17 21 23 24 24 24 24 24 24 24 24 24 25 26 26 26 26 26 26 26 26 26 26 26
2 3 2 3 4 4 4 4 4 4 4 4 4 4 4 5 5 4 4 2 4 4 3 4 4 3 3 2 3 2 1 2 2 2 2 2 2 2 2 3 6 9 6 2 4 4 2 3 3 1 4 4 5 5 7 8 7 11 10 8 8 9 17 22 23 23 23 24 24 24 24 24 25 26 26 26 26 26 26 26 26 26 26 26 26
3 2 3 2 3 3 4 3 4 3 4 3 3 3 3 3 4 4 3 2 3 3 3 3 2 2 2 1 1 1 1 1 1 1 2 1 2 1 1 2 2 3 8 7 5 6 2 3 5 2 4 5 6 6 7 7 8 10 7 7 8 7 15 22 22 21 22 23 23 23 24 25 26 26 26 26 26 27 27 27 26 26 26 26 26
3 2 3 3 2 2 3 2 2 2 3 3 3 3 3 2 2 2 2 3 2 1 1 2 1 1 0 1 0 1 1 1 2 1 1 1 1 2 1 2 1 2 3 7 8 2 6 3 4 5 5 7 6 6 6 7 9 11 8 8 8 8 18 20 19 20 21 22 22 23 24 25 26 26 26 26 27 27 27 27 26 26 26 27 27
3 3 3 4 3 3 4 3 3 3 2 3 3 3 3 3 1 1 0 2 1 1 1 0 1 1 0 0 1 2 1 2 2 2 2 1 3 2 2 2 2 2 4 4 9 2 4 8 5 7 8 7 8 8 6 6 7 10 8 8 8 13 18 11 17 20 21 22 22 23 24 26 26 26 26 26 27 27 27 26 26 26 26 27 27
4 4 4 4 4 4 3 4 4 3 3 3 3 3 2 3 2 2 2 1 1 1 1 1 1 1 1 1 2 2 2 1 3 3 3 3 2 3 3 3 3 3 3 4 7 11 5 8 8 7 8 9 8 9 8 7 7 11 8 8 9 12 8 7 12 18 20 20 21 22 24 24 25 26 26 27 27 27 26 26 26 26 27 28 27
4 4 4 4 4 4 4 4 4 4 4 4 3 3 3 3 3 3 3 3 3 3 2 3 2 2 2 2 3 4 2 2 4 3 3 3 3 3 3 3 4 4 3 4 7 11 6 4 6 7 8 8 8 7 9 8 9 9 9 8 8 8 8 8 9 13 19 21 22 24 24 24 24 25 25 25 25 25 24 25 26 26 27 27 28
4 5 5 4 4 4 4 5 5 5 4 4 4 3 4 4 4 3 4 4 4 4 3 4 4 3 2 3 3 4 3 3 3 3 3 3 3 3 4 4 5 5 4 3 6 7 12 5 8 6 7 5 8 4 8 10 9 9 10 9 7 7 8 8 8 7 17 20 23 24 24 24 24 25 24 23 23 23 23 24 25 25 26 27 29
4 5 6 6 5 5 5 5 4 4 4 5 4 4 5 5 6 5 5 5 5 4 4 5 4 3 2 3 4 4 3 3 4 4 3 4 3 3 5 4 4 5 5 4 5 8 10 9 5 8 7 7 8 9 8 7 8 7 9 8 8 7 6 8 8 6 13 20 23 22 23 24 24 23 22 21 21 21 23 24 25 27 28 29 29
6 5 5 6 5 5 5 4 4 5 5 5 6 6 7 7 7 7 6 5 5 5 5 5 5 4 4 4 4 4 3 3 4 4 4 3 4 4 4 5 4 6 5 4 4 7 7 11 7 7 8 7 8 7 8 7 8 8 8 9 7 8 8 6 7 7 11 20 22 23 23 22 21 19 19 18 19 21 22 25 27 28 28 28 28
6 5 5 5 5 5 7 6 6 7 7 7 6 6 6 5 6 6 6 5 5 6 6 6 6 5 5 6 5 4 4 4 4 4 5 4 5 4 5 6 5 6 5 5 6 5 8 10 10 6 6 6 6 7 7 9 8 8 8 9 9 9 9 7 7 7 14 20 21 21 20 18 17 16 16 18 20 23 26 27 27 27 26 27 27
6 6 7 6 6 7 7 7 7 8 7 6 7 7 6 6 6 6 6 6 6 7 7 7 7 6 6 7 6 5 4 5 6 5 4 5 4 5 6 6 6 5 6 6 6 7 7 10 9 11 4 7 7 5 7 7 9 11 10 8 7 6 8 9 7 7 7 8 7 8 10 12 11 15 18 20 23 26 26 25 25 25 25 26 27
7 7 7 7 7 7 7 6 7 8 8 7 7 7 6 6 6 7 7 7 8 7 8 8 7 7 7 7 6 5 6 6 5 5 5 5 5 5 6 6 5 5 6 6 6 7 8 10 9 8 9 5 5 9 5 5 7 7 12 12 9 6 7 8 11 8 7 10 10 14 12 10 14 14 18 23 24 25 25 24 24 25 24 25 26
8 9 9 9 9 6 8 7 8 7 7 7 7 7 7 7 7 8 8 8 8 8 8 8 7 7 7 7 7 6 6 6 5 5 5 6 5 5 5 5 5 6 7 7 7 7 9 9 9 10 7 8 7 6 6 6 8 6 5 9 14 12 9 8 8 12 9 7 7 5 6 9 10 14 18 19 21 24 24 22 22 23 25 26 26
8 9 9 8 8 8 8 8 8 7 7 9 8 8 8 9 8 9 9 9 9 9 8 8 7 8 7 6 6 6 5 7 8 7 7 7 5 6 5 4 6 6 7 6 7 8 8 9 10 8 8 8 7 8 8 7 8 10 8 7 11 11 11 12 8 6 8 9 8 7 6 5 7 6 7 9 11 17 15 20 17 22 25 26 28
9 9 8 8 8 10 10 9 8 8 8 8 11 16 12 9 9 8 8 9 9 9 8 8 8 7 7 5 5 7 8 9 9 10 11 12 10 7 7 4 6 6 7 8 8 8 9 10 9 9 10 8 8 7 8 8 7 8 9 8 12 13 12 11 9 5 5 8 10 11 9 5 6 9 8 9 8 8 7 7 10 18 24 29 30
10 10 8 9 10 10 10 10 10 9 9 10 16 14 16 18 12 8 8 9 8 8 8 8 9 8 5 4 4 5 5 6 7 10 11 11 11 14 15 14 12 9 8 9 9 8 9 10 8 8 8 10 9 6 7 9 7 8 9 10 12 12 14 16 17 10 1 8 12 18 17 5 3 10 10 8 7 7 7 9 22 26 27 28 29
10 6 8 11 10 10 9 9 10 11 10 14 15 15 15 16 16 10 7 8 7 7 8 8 8 6 6 5 4 4 4 5 5 5 7 10 12 13 14 15 15 16 15 11 10 9 8 9 9 7 8 10 9 6 8 8 9 10 10 13 12 13 15 15 13 16 12 10 12 16 20 7 1 5 11 11 7 4 10 20 26 26 27 28 29
6 8 11 9 10 10 9 10 11 12 11 14 13 14 16 17 17 13 7 8 8 8 8 8 7 7 6 5 4 4 4 7 6 5 5 6 9 13 14 14 15 15 16 18 18 13 10 10 10 11 7 9 10 7 6 10 10 12 13 11 13 14 14 17 16 17 13 13 12 16 18 12 6 6 10 10 9 5 9 16 25 27 27 28 28
7 9 9 10 9 9 9 10 11 10 10 13 13 14 16 16 15 12 6 8 8 9 9 8 7 7 6 6 5 5 4 3 4 5 5 6 7 6 6 6 6 8 12 16 18 20 15 10 10 12 10 6 11 11 9 9 11 11 14 17 17 14 18 17 18 15 16 10 14 13 18 16 4 4 8 10 9 8 8 17 25 25 26 27 27
8 9 10 9 9 9 9 8 8 9 11 13 10 13 15 15 15 13 7 7 7 7 7 7 7 7 6 5 5 5 4 4 4 6 6 7 7 6 7 7 7 7 7 8 9 8 8 8 9 11 11 9 9 11 10 9 10 12 14 17 16 17 14 17 14 13 14 12 12 9 17 18 7 7 6 11 9 10 8 14 20 24 26 27 28
7 6 7 6 9 9 8 7 8 10 11 14 14 14 15 14 15 8 6 6 6 6 6 5 5 5 4 4 4 4 3 4 7 12 12 9 7 8 8 8 8 7 8 8 12 12 11 10 9 10 10 12 17 16 16 15 14 12 12 12 11 12 15 15 14 14 14 9 6 9 12 15 9 10 9 9 10 10 9 8 16 23 25 28 30
7 7 9 8 8 8 8 7 8 9 10 12 13 14 13 13 9 7 5 6 6 6 5 5 4 4 4 4 3 3 3 5 8 12 14 14 8 8 8 8 7 7 8 6 10 15 18 21 22 24 25 26 25 26 25 26 18 15 12 12 12 12 13 14 16 15 14 9 6 6 11 15 9 10 14 14 13 12 11 11 10 17 26 27 28
8 8 7 7 7 7 7 8 8 8 9 10 11 10 13 12 10 6 6 6 5 4 3 3 3 3 4 5 5 3 4 5 9 13 14 11 7 7 7 9 9 9 8 7 6 7 14 20 23 25 25 24 24 22 21 21 23 20 13 12 12 11 12 14 16 15 17 14 10 5 11 13 12 10 16 14 15 10 12 11 12 12 18 21 27
8 6 6 6 7 6 7 8 9 9 8 8 9 10 11 12 7 5 6 5 5 4 4 4 3 3 3 4 6 6 6 8 12 13 14 11 7 7 7 8 10 10 8 7 8 10 11 11 11 10 9 11 10 11 13 24 25 21 11 10 9 8 12 15 16 15 15 13 9 5 13 15 15 13 13 12 14 16 11 8 10 11 10 9 12
Wind_Direction
113 135 143 158 154 189 165 155 179 210 204 146 170 206 244 241 221 230 231 232 219 210 205 202 209 208 199 216 224 240 248 255 254 257 262 260 265 270 275 278 273 275 282 292 310 332 356 11 12 5 9 8 8 1 357 356 355 353 349 346 339 335 336 333 331 334 337 335 335 333 328 322 315 310 305 302 301 301 301 301 300 300 297 293 291
50 42 109 119 169 162 142 158 186 234 186 185 175 167 216 221 230 232 227 230 221 230 203 233 252 214 197 233 262 245 268 281 281 265 267 265 271 301 294 289 302 302 312 325 353 6 14 27 20 9 13 10 11 9 5 358 354 351 351 352 353 352 349 351 351 350 348 346 344 343 340 335 329 319 313 312 309 306 303 302 301 299 299 299 299
45 47 56 55 45 47 57 73 77 59 286 160 175 194 236 238 229 217 213 212 224 221 196 221 203 204 211 208 254 265 262 279 293 279 280 318 352 311 334 356 13 29 42 58 50 45 49 46 45 41 34 29 28 21 13 7 0 359 6 6 7 7 15 19 22 18 12 9 6 359 353 349 343 336 327 319 314 311 309 306 304 304 303 302 302
43 30 48 55 48 50 48 40 28 15 4 340 327 320 279 264 214 208 193 182 190 209 175 146 183 20 14 8 1 4 353 355 341 354 10 25 28 34 39 58 61 55 49 44 41 40 44 44 41 40 42 40 33 25 25 21 26 28 32 30 34 33 33 29 26 22 18 17 13 6 1 355 350 344 335 328 320 314 310 305 303 301 299 299 298
49 44 33 38 49 45 49 44 30 14 21 17 43 6 20 22 22 12 93 115 105 38 43 44 37 29 37 20 8 31 11 19 30 43 46 43 46 40 44 48 52 48 44 43 37 35 38 42 42 44 43 41 36 27 29 28 41 42 40 34 30 27 24 26 22 19 14 11 10 7 2 1 356 349 343 335 329 323 317 310 305 302 300 298 297
46 44 39 31 33 48 49 41 17 18 32 25 39 30 42 43 16 24 35 57 49 31 33 32 25 31 36 13 6 9 25 50 56 57 55 47 44 43 39 46 46 42 39 39 35 34 33 38 42 42 42 40 39 40 32 25 26 30 27 27 25 22 21 21 22 18 13 10 7 4 1 4 4 360 355 348 341 331 325 322 318 312 306 299 296
47 53 47 43 28 32 29 21 10 26 49 30 42 49 41 44 28 37 52 44 51 45 39 35 18 23 15 13 18 359 46 67 64 64 60 59 51 46 41 41 39 37 38 37 32 32 30 34 40 40 37 37 37 36 31 30 28 29 25 20 20 20 18 16 17 16 13 10 7 2 357 0 3 359 356 352 346 342 335 328 323 320 319 315 309
43 50 60 47 42 37 23 10 2 31 45 44 48 51 46 40 30 23 49 42 33 38 29 21 8 14 4 13 27 34 55 51 51 49 48 57 55 53 45 44 41 38 37 37 36 32 29 33 38 37 35 33 35 37 31 30 29 26 24 23 21 20 17 15 16 14 14 12 7 3 360 360 360 358 356 353 350 347 343 340 339 334 326 321 318
44 48 54 47 44 40 26 18 22 25 42 45 48 31 38 49 36 27 32 56 42 27 33 19 12 11 7 36 62 67 56 51 48 49 46 49 44 44 44 40 37 39 40 37 35 32 26 33 37 37 35 31 32 34 31 28 26 25 22 19 18 17 13 12 12 12 15 11 7 3 359 356 357 355 353 351 349 347 347 345 344 344 339 338 333
51 49 55 47 45 39 25 16 21 43 41 47 46 37 34 41 60 41 29 46 42 24 18 13 5 351 51 76 80 78 67 59 59 55 53 52 47 39 32 32 32 32 34 34 34 30 25 29 33 36 35 34 33 31 31 26 23 22 20 17 15 13 12 11 10 11 12 8 4 3 0 358 356 354 351 349 347 347 346 347 345 344 342 339 340
48 49 53 50 48 43 41 30 36 49 58 53 50 46 51 48 63 62 53 53 45 20 12 21 332 71 77 77 84 81 76 68 63 60 57 54 51 47 42 34 32 31 28 29 31 30 28 29 29 31 27 31 36 32 31 27 23 20 18 15 12 11 9 9 10 10 10 6 4 3 2 359 355 351 349 348 347 346 346 348 350 347 345 343 342
47 46 51 48 49 43 44 35 36 48 58 56 44 40 41 51 49 56 62 61 49 28 21 359 92 82 82 77 70 75 72 69 64 59 55 50 46 42 41 34 34 32 27 22 26 27 29 27 28 26 28 26 34 34 31 29 23 19 17 13 10 8 7 8 7 8 7 6 4 3 360 357 353 351 350 349 349 349 348 349 349 348 346 345 342
48 52 49 51 51 47 46 41 35 49 56 58 50 48 37 44 56 47 45 44 24 11 9 341 121 90 89 88 81 71 74 70 66 61 58 51 44 41 37 38 33 31 26 21 23 25 25 25 24 24 26 26 29 30 29 27 21 18 15 11 8 6 6 6 6 6 4 4 3 1 359 357 355 354 352 352 354 354 351 348 345 345 345 344 342
46 45 46 46 49 47 45 40 38 48 59 60 51 45 39 34 15 66 47 59 49 8 3 10 29 129 130 115 92 87 74 68 66 59 61 55 45 40 32 32 30 22 24 21 21 22 23 22 24 27 26 26 29 28 24 21 18 17 13 9 6 4 4 4 4 4 4 3 2 360 358 357 356 354 353 355 355 352 350 347 345 342 341 341 340
36 40 46 44 45 49 46 42 42 42 55 56 53 48 38 32 28 50 64 53 62 27 24 23 120 329 47 105 171 142 187 64 54 61 59 56 49 43 33 32 28 20 21 23 22 19 19 19 23 27 26 27 32 27 24 19 19 16 11 7 4 3 2 2 2 2 4 4 1 359 358 358 358 357 355 354 352 350 348 347 345 344 342 341 338
41 41 41 40 43 47 50 49 43 39 52 57 52 49 36 36 35 37 43 68 45 41 27 29 44 320 103 85 156 142 159 52 11 44 65 61 56 46 35 28 24 23 24 27 19 18 17 18 23 27 26 30 34 29 23 20 17 14 9 3 3 2 1 360 360 1 2 2 0 359 359 359 358 356 355 353 352 349 348 347 347 347 345 343 340
49 48 50 48 47 44 47 49 52 47 52 58 55 51 45 30 29 46 40 59 68 60 40 32 41 35 57 104 84 55 49 348 342 28 27 63 51 49 36 22 22 22 23 20 17 19 15 16 20 25 27 32 30 28 23 17 17 4 2 0 1 360 360 358 358 359 0 1 360 358 358 358 357 356 354 353 351 349 348 351 353 352 349 345 343
45 46 45 49 50 50 52 56 52 51 51 56 61 53 47 44 29 36 47 34 70 66 61 40 45 46 53 60 42 70 356 320 9 149 90 88 58 50 32 20 16 21 22 17 13 12 14 14 16 20 25 31 27 24 24 18 16 7 360 355 358 359 358 357 356 356 357 358 358 358 357 356 355 354 355 354 351 348 350 354 354 350 347 345 343
44 41 44 46 48 49 52 54 56 56 52 58 58 55 50 48 45 48 50 46 44 65 40 28 46 44 46 54 60 57 40 40 36 304 352 359 64 23 25 16 10 22 19 13 7 7 9 12 12 18 21 31 25 22 22 19 14 9 359 357 358 357 356 355 354 354 356 357 356 356 356 354 353 353 353 353 350 349 350 352 350 348 346 346 345
44 41 40 44 45 47 48 52 55 53 55 55 52 50 59 54 50 53 56 52 52 69 68 35 53 56 38 49 53 52 45 49 40 51 65 330 323 12 68 11 4 25 16 7 1 1 3 5 9 15 21 25 24 22 20 14 9 2 355 356 357 356 354 353 352 352 354 354 353 353 353 352 351 352 352 351 351 350 350 350 349 348 347 346 345
39 43 39 40 45 48 48 53 53 51 54 58 57 57 53 54 54 55 56 57 54 53 63 50 48 45 48 42 50 53 49 51 34 34 44 15 323 358 333 355 9 21 13 3 348 355 4 1 8 13 21 24 22 21 16 11 2 358 355 354 355 354 352 351 351 351 351 351 351 351 351 350 350 350 350 350 350 349 348 347 347 347 346 345 345
38 39 44 40 46 48 51 53 55 57 57 57 59 57 54 56 54 60 60 68 58 61 66 66 64 59 58 61 60 44 61 46 40 31 29 59 23 326 343 340 343 337 360 356 341 346 357 4 11 12 18 23 21 17 13 5 358 353 352 352 352 352 350 349 349 349 349 349 349 350 349 348 348 348 348 348 349 348 348 347 345 345 345 344 343
41 41 43 40 47 50 54 56 57 56 57 56 54 58 55 59 59 59 57 59 57 61 64 62 64 61 56 54 60 57 59 57 34 29 47 21 359 331 332 333 310 317 340 341 333 331 359 354 18 5 14 18 17 13 4 356 350 347 349 349 351 350 348 348 347 347 347 347 347 348 347 346 346 346 346 347 347 347 346 345 344 344 343 342 342
44 49 41 36 49 50 51 57 57 55 56 55 56 55 56 59 58 59 60 59 59 63 62 61 56 63 58 55 61 64 61 63 56 50 50 20 33 315 327 320 298 274 307 321 319 332 346 9 18 359 13 15 17 6 352 351 344 344 344 346 348 347 346 346 345 345 345 344 345 346 345 344 344 345 345 345 346 345 343 342 342 342 341 340 340
41 59 42 44 53 58 53 56 58 55 61 63 59 58 64 65 66 67 65 63 61 64 68 64 65 66 68 57 68 63 64 72 72 65 52 49 23 358 316 311 284 305 296 348 328 324 309 19 1 346 7 11 6 356 348 346 344 339 341 341 344 344 343 343 343 342 342 342 343 343 343 343 343 344 344 345 344 343 341 341 341 340 339 338 338
79 72 68 64 63 67 72 70 67 66 69 68 66 64 68 73 71 72 68 65 67 67 69 69 66 67 69 69 60 63 69 69 70 69 53 39 18 15 329 319 262 288 283 339 295 6 320 14 341 331 10 14 356 347 345 342 341 335 340 341 337 340 342 341 341 340 340 341 341 341 341 342 342 342 344 343 341 340 340 340 339 338 337 336 336
108 120 88 80 78 73 73 73 70 68 65 67 64 62 62 69 69 72 69 63 68 72 67 72 69 65 60 66 65 58 56 56 66 45 74 57 49 346 11 348 340 236 340 313 267 346 282 304 330 313 18 6 346 341 340 341 332 329 337 339 334 335 338 337 338 338 338 340 339 339 340 340 340 340 340 339 338 338 337 336 335 334 334 334 334
140 112 114 102 97 87 77 83 84 80 76 80 76 74 71 79 75 75 74 60 78 73 78 73 75 80 76 62 61 26 18 8 38 37 36 46 28 1 39 13 360 332 334 299 344 307 328 328 300 209 19 356 334 332 331 328 325 321 333 332 332 329 330 333 335 336 337 336 336 337 337 338 338 337 337 336 337 337 336 334 333 332 333 333 334
142 143 139 121 111 106 97 88 82 88 85 90 93 87 77 79 90 88 91 84 85 100 95 91 109 105 93 100 112 49 329 334 356 347 354 11 354 2 34 8 355 331 330 323 342 332 322 356 341 310 360 340 329 331 330 327 320 326 330 329 324 322 324 330 333 333 334 333 334 335 335 335 335 334 334 334 335 335 334 333 332 333 334 334 333
166 167 142 147 147 118 114 111 94 86 106 104 108 119 107 103 111 111 133 109 94 60 86 112 95 120 107 47 271 338 294 346 287 287 293 297 309 306 286 293 263 290 286 310 310 324 298 319 317 303 328 325 325 321 327 319 319 328 329 327 323 318 324 329 329 330 330 331 332 332 332 332 332 332 331 331 332 332 331 331 332 333 333 333 334
178 178 169 169 166 169 161 177 178 174 161 149 146 147 139 137 167 152 150 92 100 95 276 188 218 137 158 326 300 294 294 299 310 305 285 273 285 255 270 247 263 221 260 263 303 275 338 308 308 307 313 319 322 319 316 314 315 326 325 318 316 316 322 320 324 327 327 328 329 329 330 330 329 328 328 328 329 329 329 329 330 331 331 331 331
193 189 187 191 194 187 193 182 193 193 195 209 174 171 156 170 185 176 236 147 146 218 264 270 242 184 184 246 278 270 284 307 304 294 278 280 269 281 271 267 260 253 234 254 266 288 306 298 303 303 310 315 324 318 318 316 316 324 319 318 313 316 316 313 316 320 322 323 324 325 326 325 325 325 325 327 327 326 327 327 328 329 329 328 327
198 197 199 204 201 201 197 206 194 200 202 220 216 181 189 204 221 212 219 203 208 243 238 274 279 242 233 230 267 269 268 280 273 279 285 275 278 274 273 262 272 267 261 254 280 290 288 274 297 302 309 314 312 315 312 315 319 320 318 313 312 314 315 314 313 314 318 321 323 323 322 321 322 323 323 323 322 322 324 325 325 326 326 326 325
187 202 201 206 205 209 201 211 208 205 208 208 211 193 202 216 231 226 220 217 226 237 217 236 263 253 235 227 260 266 268 251 268 272 265 282 279 286 286 271 267 275 252 254 272 284 296 310 302 301 301 301 295 303 306 313 312 313 310 308 305 306 307 306 305 306 314 319 319 318 318 318 319 320 320 320 320 320 322 323 322 322 322 323 322
207 200 205 205 209 209 216 218 214 216 212 216 214 199 209 207 215 222 218 212 215 226 224 236 240 243 246 233 246 254 268 271 271 270 271 275 273 271 282 277 271 271 268 247 274 288 296 298 295 300 300 307 304 308 304 296 295 295 295 296 301 300 293 294 296 297 310 314 314 314 314 314 313 314 316 316 318 320 321 321 321 320 319 319 318
215 221 212 214 213 214 216 224 218 221 223 223 220 209 211 210 213 220 221 220 221 226 227 235 236 231 234 244 247 240 245 253 271 273 277 272 278 278 280 283 272 276 271 266 248 275 289 298 298 293 299 303 299 296 296 295 299 300 295 297 291 290 290 287 289 297 305 309 310 309 307 306 307 309 313 314 317 318 318 318 317 317 316 316 316
225 220 229 222 221 217 219 218 221 222 226 224 224 225 226 221 220 222 226 223 227 230 232 232 230 222 229 226 237 225 223 244 265 268 268 278 278 280 280 280 280 276 277 271 276 275 287 290 294 279 285 285 279 291 294 305 305 296 298 298 301 301 296 291 296 294 300 305 303 300 298 298 303 308 312 316 316 316 314 312 313 314 313 313 313
223 223 224 226 220 226 225 223 222 227 229 228 226 227 227 226 227 230 228 226 227 230 234 232 229 222 222 228 230 222 223 223 248 259 265 268 276 277 278 277 276 279 278 281 274 279 279 281 288 298 275 293 296 277 294 296 305 308 301 295 294 292 298 304 292 296 292 288 292 284 283 287 283 307 314 312 312 313 310 309 312 313 313 314 314
220 224 227 228 231 227 233 229 231 231 232 232 231 233 233 230 228 229 232 228 230 231 234 233 230 226 224 226 225 217 221 225 236 250 260 270 268 270 270 274 278 280 282 280 281 281 281 287 286 278 293 276 277 301 288 283 293 295 306 311 297 290 295 297 304 291 281 284 277 279 282 291 305 310 308 309 311 311 309 311 313 313 314 314 313
222 225 225 224 231 223 232 229 234 231 235 237 236 232 231 230 229 233 231 231 232 235 237 237 233 230 228 224 222 219 215 227 232 245 243 261 266 272 269 274 274 279 280 284 286 284 286 287 285 296 290 298 295 269 290 304 299 291 290 310 310 313 307 292 287 298 293 268 283 275 275 286 287 296 302 305 307 307 308 311 312 314 316 314 313
225 225 226 224 228 231 234 232 236 231 230 237 233 229 227 232 226 233 233 233 235 237 240 240 237 236 233 227 223 224 221 232 235 240 243 243 253 264 271 269 279 276 282 281 283 285 283 284 290 287 293 296 290 302 308 307 306 308 314 309 293 298 302 299 288 252 264 291 292 281 282 280 289 287 296 299 297 301 303 308 314 316 312 312 314
227 227 226 225 224 229 232 233 233 232 233 236 237 233 225 226 227 227 233 234 234 235 238 241 243 237 234 224 225 223 233 245 255 262 266 269 268 270 278 273 275 279 279 286 285 283 286 287 288 298 297 291 299 301 299 296 301 304 304 302 300 302 300 293 290 285 294 298 302 305 303 296 302 303 301 292 288 294 299 308 314 311 312 313 311
229 228 223 227 228 228 229 232 232 231 234 236 236 232 231 230 230 227 227 234 233 233 233 234 240 238 229 218 222 242 249 263 266 266 269 273 279 282 283 283 284 286 291 288 284 282 286 283 289 292 286 291 293 300 296 304 307 300 301 300 297 301 310 314 314 307 221 311 315 309 302 293 295 302 295 288 293 302 305 301 308 311 310 308 308
233 223 225 230 232 231 231 234 236 237 238 239 234 233 232 231 235 232 227 233 233 229 229 231 234 230 220 210 222 220 239 244 249 262 270 274 277 278 280 283 284 285 283 285 291 290 283 289 290 280 291 289 297 308 303 307 305 301 297 300 298 305 308 308 304 305 315 328 313 308 302 312 275 271 294 295 293 295 301 306 308 308 307 308 310
228 222 231 231 235 233 231 234 238 242 243 249 239 234 241 246 247 241 223 226 229 228 228 226 223 214 204 205 219 227 233 245 253 261 262 267 271 275 279 281 282 282 284 284 283 282 291 287 286 289 285 298 298 296 297 298 297 293 297 298 303 304 303 301 301 305 314 326 314 307 300 302 329 294 287 293 293 287 293 301 303 305 308 309 309
227 235 237 234 239 236 232 233 242 249 250 254 247 244 251 254 253 248 226 226 226 227 223 218 209 202 194 197 210 233 238 241 252 258 261 262 268 271 269 266 267 270 275 279 282 285 286 286 289 288 291 286 287 294 292 286 285 288 303 304 305 304 303 301 304 306 309 326 315 316 298 298 325 302 291 290 293 294 284 294 301 306 309 309 309
230 231 236 237 240 239 238 234 239 249 252 249 243 250 254 254 253 251 238 227 222 221 218 208 198 189 190 194 210 228 238 250 248 260 269 276 278 276 274 276 272 272 269 271 275 278 280 279 278 280 284 283 280 282 282 281 283 296 300 301 305 306 305 304 300 302 301 308 308 303 288 298 322 305 289 297 297 289 277 289 301 308 310 308 309
238 239 246 233 242 241 238 230 229 245 254 254 255 255 255 253 253 250 234 220 211 209 204 187 180 185 185 199 208 225 239 248 265 278 283 286 285 283 283 281 280 275 266 262 270 276 279 278 276 280 281 285 291 291 295 297 296 297 300 302 307 309 308 306 303 307 299 299 276 281 285 291 316 313 306 297 294 287 290 292 305 307 308 307 306
238 233 235 235 236 240 244 234 229 244 254 257 254 252 253 251 245 233 207 197 196 194 192 170 168 182 193 199 198 217 254 259 272 283 286 291 286 285 286 286 286 283 280 277 275 280 285 287 287 289 290 292 293 294 295 297 300 306 311 307 302 311 311 306 302 305 299 304 278 274 286 290 314 317 309 306 302 302 299 295 298 302 304 303 306
239 236 235 243 243 234 238 242 231 237 249 254 251 245 248 242 233 203 185 181 185 176 153 151 162 182 202 207 217 222 250 264 277 282 287 293 292 293 292 291 289 286 285 283 282 278 280 280 279 283 288 291 294 298 302 304 304 304 307 301 309 314 298 297 299 301 301 299 292 305 291 290 309 315 308 308 305 289 288 289 297 294 303 304 301
240 240 228 233 245 238 229 238 238 233 246 253 244 236 236 236 202 156 162 159 161 164 157 184 187 189 206 220 235 240 247 266 279 287 294 298 293 288 286 288 289 289 290 293 287 283 276 272 276 284 293 300 304 302 299 299 298 300 297 290 300 296 298 299 297 300 297 289 292 341 306 302 310 310 319 321 309 297 289 285 297 300 297 292 295